Regional Weather Roundup
Issued by NWS Albany, NY

Home | Current Version | Previous Version | Text Only | Print | Product List | Glossary On
Versions: 1 2 3 4 5 6 7 8 9 10 11 12 13 14 15 16 17 18 19 20 21 22 23 24 25 26 27
000
ASUS41 KALY 061510
RWRALY

NEW YORK STATE HOURLY WEATHER ROUNDUP
NATIONAL WEATHER SERVICE ALBANY NY
1000 AM EST TUE DEC 06 2016

NOTE: "FAIR" INDICATES FEW OR NO CLOUDS BELOW 12,000 FEET WITH NO
SIGNIFICANT WEATHER AND/OR NO OBSTRUCTIONS TO VISIBILITY.

NYZ032-033-038>043-046>054-057>066-NYZ062>081-082-084-061600-
EAST


CITY           SKY/WX    TMP DP  RH WIND       PRES   REMARKS
ALBANY         MOSUNNY   39  32  76 S3        30.15R
GLENS FALLS    CLOUDY    33  30  88 CALM      30.15R
POUGHKEEPSIE   SUNNY     36  29  75 CALM      30.15S
NEWBURGH       PTSUNNY   39  30  70 CALM      30.15S
MONTGOMERY     MOSUNNY   37  30  75 CALM      30.13S
WHITE PLAINS   MOSUNNY   42  30  62 N7        30.12F
ISLIP          PTSUNNY   44  33  65 NE8       30.14S
NEW YORK CITY  CLOUDY    46  30  53 NE10      30.14S
CENTRAL PARK   MOSUNNY   44  29  55 VRB7      30.16S
$$

NYZ005>009-017-018-044>046-055-056-061600-
CENTRAL


CITY           SKY/WX    TMP DP  RH WIND       PRES   REMARKS
FULTON         CLOUDY    37  31  78 VRB5      30.08F WCI  33
SYRACUSE       CLOUDY    37  32  82 E6        30.08F WCI  32
ROME           MOSUNNY   36  33  89 SE5       30.13S WCI  32
ELMIRA         MOSUNNY   29  26  89 E3        30.07F
BINGHAMTON     MOSUNNY   30  28  92 SE7       30.05F WCI  23
MONTICELLO     MOSUNNY   30  28  93 CALM      30.10F
$$

NYZ026>034-041>043-087-061600-
NORTH


CITY           SKY/WX    TMP DP  RH WIND       PRES   REMARKS
WATERTOWN      SUNNY     36  31  82 E5        30.10F WCI  32
FORT DRUM      NOT AVBL
OGDENSBURG     FAIR      38  33  82 S3        30.13R
MASSENA        MOSUNNY   32  29  88 CALM      30.15S
SARANAC LAKE   MOSUNNY   28  25  88 S3        30.05R
PLATTSBURGH    CLOUDY    32  27  81 CALM      30.15S
$$

NYZ001>004-010>016-019>021-085-061600-
WEST


CITY           SKY/WX    TMP DP  RH WIND       PRES   REMARKS
NIAGARA FALLS  CLOUDY    37  29  72 E10       30.00S WCI  30
BUFFALO        PTSUNNY   37  28  70 E9        29.99S WCI  30
DUNKIRK        CLOUDY    38  27  64 E14       29.94F WCI  30
JAMESTOWN      MOSUNNY   34  25  69 SE12      29.89F WCI  25
WELLSVILLE     CLOUDY    34  26  72 SE15G22   29.97F WCI  24
ROCHESTER      CLOUDY    35  29  78 E6        30.05F WCI  30
PENN YAN       MOSUNNY   34  29  82 CALM      30.05F
$$

             KEY
       WCI = WIND CHILL INDEX
       VSB = VISIBILITY
       HX  = HEAT INDEX
$$




USA.gov is the U.S. government's official web portal to all federal, state and local government web resources and services.